CW0650 Weather Reports


time (UTC)temp
F
wind
direction
speed
knots
gust
knots
rain 1hr
in
rain 24hr
in
rain mn
in
humidity
%
barometer
mb
20260507073040 41 135 3.5 7.8 0.02 0.09 0.09 85 1016.3
20260507071537 40 134 3.5 8.7 0.04 0.09 0.09 86 1016.1
20260507070039 41 145 3.5 7.0 0.06 0.09 0.09 85 1015.9
20260507064539 41 168 3.5 8.7 0.05 0.08 0.08 85 1015.9
20260507063042 41 144 1.7 3.5 0.04 0.07 0.07 84 1015.8
20260507061539 41 142 3.5 7.0 0.02 0.05 0.05 83 1016.0
20260507060038 42 158 5.2 10.4 0.00 0.03 0.03 81 1015.5
20260507054538 43 148 3.5 7.8 0.00 0.03 0.03 80 1015.3
20260507053039 43 159 2.6 9.6 0.00 0.03 0.03 81 1015.3
20260507051538 43 155 3.5 7.0 0.00 0.03 0.03 81 1015.2
20260507050041 42 148 1.7 4.3 0.00 0.03 0.03 81 1015.0
20260507044538 42 155 2.6 7.8 0.00 0.03 0.03 82 1015.1
20260507043054 42 120 3.5 10.4 0.01 0.03 0.03 82 1014.8
20260507041538 43 130 4.3 10.4 0.02 0.03 0.03 81 1014.9
20260507040035 43 167 3.5 7.0 0.02 0.03 0.03 81 1014.9
20260507034538 43 165 1.7 4.3 0.02 0.03 0.03 83 1015.0
20260507033043 44 245 2.6 7.8 0.01 0.02 0.02 80 1014.8
20260507031545 45 206 2.6 5.2 0.00 0.01 0.01 76 1014.6
20260507030036 46 238 3.5 7.8 0.00 0.01 0.01 70 1014.4
20260507024551 47 188 3.5 8.7 0.01 0.01 0.01 71 1014.1
20260507023037 46 204 3.5 7.0 0.01 0.01 0.01 73 1014.1
20260507021543 45 210 1.7 4.3 0.01 0.01 0.01 78 1013.9
20260507020048 45 217 0.0 6.1 0.01 0.01 0.01 81 1013.9
20260507014538 46 211 3.5 8.7 0.00 0.00 0.00 78 1013.8
20260507013038 45 170 1.7 7.0 0.00 0.00 0.00 80 1013.8
20260507011545 44 259 2.6 6.1 0.00 0.00 0.00 82 1013.8
20260507010038 44 256 0.9 3.5 0.00 0.00 0.00 85 1014.1
20260507004543 44 262 0.9 4.3 0.00 0.00 0.00 84 1013.7
20260507003037 44 233 1.7 4.3 0.00 0.00 0.00 84 1013.8
20260507001616 42 311 0.9 4.3 0.00 0.00 0.00 86 1013.7
20260507000042 42 349 0.9 2.6 0.00 0.00 0.00 85 1013.6
20260506234537 42 336 1.7 4.3 0.00 0.00 0.00 84 1013.5
20260506233042 43 315 1.7 4.3 0.00 0.00 0.00 83 1013.3
20260506231544 43 319 1.7 3.5 0.00 0.00 0.00 83 1013.3
20260506230052 43 274 0.9 7.0 0.00 0.00 0.00 82 1013.2
20260506224538 45 241 1.7 6.1 0.00 0.00 0.00 78 1013.4
20260506223037 46 249 2.6 10.4 0.00 0.00 0.00 75 1013.1
20260506221602 46 221 2.6 8.7 0.00 0.00 0.00 75 1013.1
20260506220036 45 258 2.6 9.6 0.00 0.00 0.00 77 1012.8
20260506214537 45 219 2.6 7.0 0.00 0.00 0.00 75 1012.9
20260506213039 47 245 1.7 8.7 0.00 0.00 0.00 67 1012.8
20260506211538 46 226 4.3 8.7 0.00 0.00 0.00 67 1012.7
20260506210054 46 221 5.2 9.6 0.00 0.00 0.00 67 1012.7
20260506204540 46 162 4.3 11.3 0.00 0.00 0.00 68 1012.5
20260506203044 45 200 4.3 9.6 0.00 0.00 0.00 70 1012.4
20260506201542 45 216 4.3 8.7 0.00 0.00 0.00 71 1012.4
20260506200040 45 242 4.3 10.4 0.00 0.00 0.00 71 1012.3
20260506194538 45 185 3.5 8.7 0.00 0.00 0.00 72 1012.1
20260506193043 45 153 4.3 9.6 0.00 0.00 0.00 72 1012.1
20260506191537 45 262 3.5 6.1 0.00 0.00 0.00 75 1012.1
20260506190038 45 229 1.7 4.3 0.00 0.00 0.00 75 1012.1
20260506184543 44 314 0.0 1.7 0.00 0.00 0.00 76 1012.1
20260506183038 43 0 0.0 1.7 0.00 0.00 0.00 77 1011.9
20260506181542 43 326 0.0 1.7 0.00 0.00 0.00 79 1011.9
20260506180038 43 311 0.9 2.6 0.00 0.00 0.00 77 1011.8
20260506174538 43 32 0.9 2.6 0.00 0.00 0.00 77 1011.8
20260506173043 43 13 0.0 1.7 0.00 0.00 0.00 76 1011.7
20260506171541 42 0 0.0 2.6 0.00 0.00 0.00 78 1011.7
20260506170046 42 18 0.0 1.7 0.00 0.00 0.00 77 1011.6
20260506164551 42 30 0.0 1.7 0.00 0.00 0.00 78 1011.4
20260506163051 41 345 0.9 1.7 0.00 0.00 0.00 79 1011.3
20260506161537 41 32 0.0 2.6 0.00 0.00 0.00 79 1011.3
20260506160037 41 0 0.0 0.9 0.00 0.00 0.00 79 1011.0
20260506154544 41 46 0.0 2.6 0.00 0.00 0.00 79 1010.9
20260506153037 41 0 0.0 0.9 0.00 0.00 0.00 80 1010.9
20260506151539 40 0 0.0 0.9 0.00 0.00 0.00 81 1010.9
20260506150043 40 0 0.0 0.9 0.00 0.00 0.00 81 1010.7
20260506144537 40 148 0.0 1.7 0.00 0.00 0.00 82 1010.6
20260506143039 40 195 0.0 1.7 0.00 0.00 0.00 82 1010.5
20260506141543 40 192 0.9 4.3 0.00 0.00 0.00 82 1010.6
20260506140038 40 171 1.7 4.3 0.00 0.00 0.00 81 1010.4
20260506134537 40 125 1.7 7.0 0.00 0.00 0.00 80 1010.6
20260506133049 40 137 0.9 2.6 0.00 0.00 0.00 80 1010.5
20260506131537 40 193 1.7 4.3 0.00 0.00 0.00 80 1010.5
20260506130037 41 227 1.7 4.3 0.00 0.00 0.00 79 1010.4
20260506124542 41 218 1.7 4.3 0.00 0.00 0.00 78 1010.3
20260506123039 41 195 2.6 7.0 0.00 0.00 0.00 78 1010.3
20260506121537 41 198 1.7 6.1 0.00 0.00 0.00 78 1010.1
20260506120053 41 208 0.9 5.2 0.00 0.00 0.00 77 1010.1
20260506114535 41 244 3.5 8.7 0.00 0.00 0.00 75 1010.1
20260506113037 41 193 4.3 8.7 0.00 0.00 0.00 75 1010.0
20260506111544 41 235 4.3 8.7 0.00 0.00 0.00 74 1010.0
20260506110038 41 184 2.6 8.7 0.00 0.00 0.00 74 1009.9
20260506104548 42 212 2.6 7.0 0.00 0.00 0.00 74 1009.9
20260506103048 42 169 2.6 6.1 0.00 0.00 0.00 73 1009.9
20260506101536 42 205 2.6 7.0 0.00 0.00 0.00 73 1009.9
20260506100035 42 199 2.6 6.1 0.00 0.00 0.00 72 1009.7
20260506094537 42 202 3.5 7.0 0.00 0.00 0.00 71 1009.5
20260506093038 43 210 2.6 8.7 0.00 0.00 0.00 70 1009.4
20260506091538 43 156 3.5 7.8 0.00 0.00 0.00 68 1009.3
20260506090037 44 200 4.3 11.3 0.00 0.00 0.00 66 1009.2
20260506084610 44 141 4.3 8.7 0.00 0.00 0.00 65 1009.0
20260506083039 44 223 3.5 10.4 0.00 0.00 0.00 64 1008.8
20260506081551 44 150 2.6 10.4 0.00 0.00 0.00 63 1008.6